EW2973 Weather Reports


Display with metric or nautical units.
time (UTC)temp
F
wind
direction
speed
MPH
gust
MPH
rain 1hr
in
rain 24hr
in
rain mn
in
humidity
%
barometer
mb
20260502223012 45 336 2.0 5.0 0.00 0.01 0.00 57 1017.8
20260502221528 45 346 1.0 3.0 0.00 0.01 0.00 58 1017.7
20260502220031 45 5 1.0 3.0 0.00 0.01 0.00 59 1017.7
20260502214523 45 346 1.0 3.0 0.00 0.01 0.00 59 1017.7
20260502213029 46 5 2.0 6.0 0.00 0.01 0.00 59 1017.5
20260502211520 46 31 2.0 4.0 0.00 0.01 0.00 55 1017.4
20260502210019 46 352 3.0 7.0 0.00 0.01 0.00 52 1017.4
20260502204511 46 16 1.0 5.0 0.00 0.01 0.00 54 1017.4
20260502203026 46 302 3.0 6.0 0.00 0.01 0.00 57 1017.5
20260502201535 46 350 2.0 5.0 0.00 0.01 0.00 56 1017.5
20260502200023 45 15 3.0 5.0 0.00 0.01 0.00 58 1017.6
20260502194535 46 336 2.0 10.0 0.00 0.01 0.00 59 1017.7
20260502193022 47 333 3.0 6.0 0.00 0.01 0.00 53 1017.4
20260502191519 46 338 3.0 7.0 0.00 0.01 0.00 51 1017.7
20260502190026 46 28 3.0 7.0 0.00 0.01 0.00 54 1017.7
20260502184534 47 360 3.0 8.0 0.00 0.01 0.00 54 1017.7
20260502183026 47 17 3.0 6.0 0.00 0.01 0.00 50 1017.6
20260502181528 48 10 2.0 8.0 0.00 0.01 0.00 51 1017.7
20260502163044 45 337 0.0 6.0 0.00 0.01 0.00 56 1018.1
20260502161525 45 335 2.0 5.0 0.00 0.01 0.00 59 1018.4
20260502151526 45 344 2.0 8.0 0.00 0.06 0.00 59 1018.4
20260502123022 35 313 1.0 4.0 0.00 0.11 0.00 89 1017.9
20260502121526 34 5 1.0 2.0 0.00 0.11 0.00 94 1017.8
20260502114525 32 151 0.0 0.0 0.00 0.11 0.00 94 1017.5
20260502113027 31 151 0.0 0.0 0.00 0.11 0.00 94 1017.5
20260502111526 31 151 0.0 0.0 0.00 0.11 0.00 94 1017.5
20260502110024 31 151 0.0 0.0 0.00 0.11 0.00 93 1017.4
20260502104522 31 151 0.0 0.0 0.00 0.11 0.00 93 1017.4
20260502103018 31 151 0.0 0.0 0.00 0.11 0.00 93 1017.5
20260502101518 31 151 0.0 0.0 0.00 0.11 0.00 93 1017.6
20260502091526 32 151 0.0 0.0 0.00 0.11 0.00 93 1017.4
20260502071521 34 151 0.0 0.0 0.00 0.11 0.00 93 1017.2
20260502070020 34 151 0.0 0.0 0.00 0.11 0.00 93 1017.4
20260502064531 35 151 0.0 0.0 0.00 0.11 0.00 1017.6
20260502063010 35 151 0.0 0.0 0.00 0.11 0.00 93 1017.5
20260502061529 35 151 0.0 0.0 0.00 0.11 0.00 93 1017.6
20260502060029 35 151 0.0 0.0 0.00 0.11 0.00 92 1017.6
20260502054524 36 95 0.0 0.0 0.00 0.11 0.00 92 1017.8
20260502053022 36 23 0.0 0.0 0.00 0.11 0.00 92 1017.8
20260502051526 36 23 0.0 0.0 0.00 0.11 0.00 1017.6
20260502050016 37 23 0.0 0.0 0.00 0.11 0.00 1017.6
20260502044526 37 23 0.0 0.0 0.00 0.11 0.00 92 1017.6
20260502043026 37 23 0.0 0.0 0.00 0.11 0.00 92 1017.7
20260502041525 37 23 0.0 0.0 0.00 0.11 0.00 91 1017.6
20260502040021 37 18 0.0 0.0 0.00 0.11 0.00 91 1017.6
20260502034534 38 18 0.0 0.0 0.00 0.11 0.11 1017.5
20260502033019 38 18 0.0 0.0 0.00 0.11 0.11 90 1017.6
20260502031526 39 18 0.0 0.0 0.00 0.11 0.11 90 1017.7
20260502030028 40 18 0.0 0.0 0.00 0.11 0.11 90 1017.9
20260502024527 40 18 0.0 0.0 0.00 0.11 0.11 90 1017.9
20260502023026 40 18 0.0 0.0 0.00 0.11 0.11 90 1017.8
20260502021524 40 18 0.0 0.0 0.00 0.11 0.11 88 1017.6
20260502020020 41 18 0.0 0.0 0.00 0.11 0.11 87 1017.4
20260502014544 41 18 0.0 0.0 0.01 0.11 0.11 87 1017.3
20260502013028 41 18 0.0 0.0 0.01 0.11 0.11 87 1017.1
20260502011505 42 24 0.0 0.0 0.01 0.11 0.11 85 1016.5
20260502010008 43 24 0.0 4.0 0.01 0.11 0.11 80 1016.4
20260502004504 45 5 5.0 10.0 0.00 0.10 0.10 75 1016.6
20260502003005 45 13 1.0 4.0 0.00 0.10 0.10 74 1016.2
20260502001512 46 351 0.0 0.0 0.00 0.10 0.10 74 1016.1
20260502000017 46 16 0.0 1.0 0.00 0.10 0.10 73 1015.7
20260501234504 46 360 0.0 3.0 0.00 0.10 0.10 71 1015.5
20260501233004 46 321 1.0 2.0 0.00 0.10 0.10 70 1015.3
20260501231515 46 342 0.0 2.0 0.00 0.10 0.10 71 1015.2
20260501230003 46 319 0.0 3.0 0.00 0.10 0.10 71 1015.3
20260501224505 46 360 1.0 4.0 0.00 0.10 0.10 73 1015.2